Simultaneous Nadir Overpasses (SNOs) Predictions

Prediction of SNOs between METOP-B and TERRA Satellite Orbit:

Table of predicted SNOs for the next 14.0 days since TLE Epoch: 10/24/2020
Index Date (METOP-B) Time (METOP-B) Lat,Lon (METOP-B) SZA (METOP-B ) Date (TERRA) Time (TERRA) Lat,Lon (TERRA) SZA (TERRA ) Distance(km) Time Diff (sec)
1 10/26/2020 09:08:43 -81.29, -90.13 82.93 10/26/2020 09:08:58 -81.30, -90.20 82.93 1.35 15
2 10/26/2020 09:59:22 81.30, 77.69 97.15 10/26/2020 09:58:24 81.30, 77.53 97.10 2.73 58
3 10/29/2020 04:43:06 -81.29, -23.85 82.00 10/29/2020 04:43:12 -81.28, -24.03 82.03 3.27 6
4 10/29/2020 05:33:45 81.30, 143.96 98.07 10/29/2020 05:32:37 81.30, 144.04 98.05 1.78 68
5 10/31/2020 23:26:49 81.28,-125.08 98.86 10/31/2020 23:27:59 81.29,-125.15 98.89 1.21 70
6 11/01/2020 00:17:30 -81.29, 42.41 81.11 11/01/2020 00:17:26 -81.28, 42.47 81.11 1.04 4
7 11/03/2020 19:01:13 81.28, -58.84 99.72 11/03/2020 19:02:13 81.29, -58.71 99.77 2.19 60
8 11/03/2020 19:51:53 -81.29, 109.05 80.20 11/03/2020 19:51:40 -81.29, 108.94 80.23 1.89 13
9 11/06/2020 14:35:35 81.29, 7.78 100.59 11/06/2020 14:36:26 81.28, 7.70 100.60 1.47 51
